This is the latest recevied weather packets stored in our database for station/object K9ZOG. If no packets are shown the sender has not sent any weather packets the latest 10 day(s).
| Time | Temp. | Humidity | Pressure | Rain* | Wind** | Luminosity | Snow |
|---|---|---|---|---|---|---|---|
| 1777910355 | 20° C | 42% | 1001.9 hPa | 0 mm | - | 857 W/m² | - |
| 1777910053 | 19.44° C | 42% | 1001.9 hPa | 0 mm | - | 849 W/m² | - |
| 1777909754 | 19.44° C | 42% | 1002 hPa | 0 mm | - | 839 W/m² | - |
| 1777909454 | 19.44° C | 44% | 1002.1 hPa | 0 mm | - | 829 W/m² | - |
| 1777909153 | 18.89° C | 46% | 1002.1 hPa | 0 mm | - | 667 W/m² | - |
| 1777908854 | 18.89° C | 47% | 1002.1 hPa | 0 mm | - | 752 W/m² | - |
| 1777908557 | 18.33° C | 50% | 1002.1 hPa | 0 mm | - | 794 W/m² | - |
| 1777908258 | 17.78° C | 52% | 1002.2 hPa | 0 mm | - | 784 W/m² | - |
| 1777907955 | 17.78° C | 52% | 1002.3 hPa | 0 mm | - | 774 W/m² | - |
| 1777907653 | 17.78° C | 52% | 1002.3 hPa | 0 mm | - | 762 W/m² | - |
| 1777907355 | 17.22° C | 56% | 1002.3 hPa | 0 mm | - | 746 W/m² | - |
| 1777907052 | 17.22° C | 54% | 1002.5 hPa | 0 mm | - | 731 W/m² | - |
| 1777906754 | 16.67° C | 55% | 1002.5 hPa | 0 mm | - | 718 W/m² | - |
| 1777906454 | 16.67° C | 55% | 1002.5 hPa | 0 mm | - | 706 W/m² | - |
| 1777906155 | 16.67° C | 55% | 1002.6 hPa | 0 mm | - | 694 W/m² | - |
| 1777905857 | 16.67° C | 57% | 1002.6 hPa | 0 mm | - | 683 W/m² | - |
| 1777905556 | 16.67° C | 58% | 1002.6 hPa | 0 mm | - | 385 W/m² | - |
| 1777905257 | 16.67° C | 57% | 1002.6 hPa | 0 mm | - | 270 W/m² | - |
| 1777904957 | 16.11° C | 59% | 1002.6 hPa | 0 mm | - | 306 W/m² | - |
| 1777904656 | 16.11° C | 60% | 1002.7 hPa | 0 mm | - | 385 W/m² | - |
| 1777904356 | 16.11° C | 61% | 1002.7 hPa | 0 mm | - | 351 W/m² | - |
| 1777904059 | 15.56° C | 61% | 1002.9 hPa | 0 mm | - | 284 W/m² | - |
| 1777903754 | 15.56° C | 61% | 1002.9 hPa | 0 mm | - | 400 W/m² | - |
| 1777903457 | 15.56° C | 63% | 1002.9 hPa | 0 mm | - | 277 W/m² | - |
| 1777903155 | 15.56° C | 63% | 1002.9 hPa | 0 mm | - | 160 W/m² | - |
* Rain latest hour (hover to see other rain measurements)
** Current wind speed in m/s (hover to see current wind gust speed)